Stations météo

Publicité
Pertusato, France (7770): Température de l'air & dewpoint: 06.08.2020 07:00:00 - 12.08.2020 07:00:00 (CEST)Pertusato, France (7770): Vitesse du vent & gusts: 06.08.2020 07:00:00 - 12.08.2020 07:00:00 (CEST)Pertusato, France (7770): Direction du vent: 06.08.2020 07:00:00 - 12.08.2020 07:00:00 (CEST)Pertusato, France (7770): reduced air pressure: 06.08.2020 07:00:00 - 12.08.2020 07:00:00 (CEST)Pertusato, France (7770): visibility: 06.08.2020 07:00:00 - 12.08.2020 07:00:00 (CEST)Pertusato, France (7770): Quantités de précipitations: 06.08.2020 07:00:00 - 12.08.2020 07:00:00 (CEST)
Date & Time tt [°C] td [°C] ff [km/h] ff [knt] fx [km/h] fx [knt] dd ppp [hPa] vv [km] rr [mm]
12.08.2020 07:00:00 - - - - - - - - - -
12.08.2020 06:00:00 - - - - - - - - - -
12.08.2020 05:00:00 - - - - - - - - - -
12.08.2020 04:00:00 - - - - - - - - - -
12.08.2020 03:00:00 - - - - - - - - - -
12.08.2020 02:00:00 - - - - - - - - - -
12.08.2020 01:00:00 - - - - - - - - - -
12.08.2020 00:00:00 - - - - - - - - - -
11.08.2020 23:00:00 - - - - - - - - - -
11.08.2020 22:00:00 - - - - - - - - - -
11.08.2020 21:00:00 - - - - - - - - - -
11.08.2020 20:00:00 - - - - - - - - - -
11.08.2020 19:00:00 - - - - - - - - - -
11.08.2020 18:00:00 - - - - - - - - - -
11.08.2020 17:00:00 - - - - - - - - - -
11.08.2020 16:00:00 - - - - - - - - - -
11.08.2020 15:00:00 - - - - - - - - - -
11.08.2020 14:00:00 - - - - - - - - - -
11.08.2020 13:00:00 - - - - - - - - - -
11.08.2020 12:00:00 - - - - - - - - - -
11.08.2020 11:00:00 - - - - - - - - - -
11.08.2020 10:00:00 - - - - - - - - - -
11.08.2020 09:00:00 - - - - - - - - - -
11.08.2020 08:00:00 - - - - - - - - - -
11.08.2020 07:00:00 - - - - - - - - - -
11.08.2020 06:00:00 - - - - - - - - - -
11.08.2020 05:00:00 - - - - - - - - - -
11.08.2020 04:00:00 - - - - - - - - - -
11.08.2020 03:00:00 - - - - - - - - - -
11.08.2020 02:00:00 - - - - - - - - - -
11.08.2020 01:00:00 - - - - - - - - - -
11.08.2020 00:00:00 - - - - - - - - - -
10.08.2020 23:00:00 - - - - - - - - - -
10.08.2020 22:00:00 - - - - - - - - - -
10.08.2020 21:00:00 - - - - - - - - - -
10.08.2020 20:00:00 - - - - - - - - - -
10.08.2020 19:00:00 - - - - - - - - - -
10.08.2020 18:00:00 - - - - - - - - - -
10.08.2020 17:00:00 - - - - - - - - - -
10.08.2020 16:00:00 - - - - - - - - - -
10.08.2020 15:00:00 - - - - - - - - - -
10.08.2020 14:00:00 - - - - - - - - - -
10.08.2020 13:00:00 - - - - - - - - - -
10.08.2020 12:00:00 - - - - - - - - - -
10.08.2020 11:00:00 - - - - - - - - - -
10.08.2020 10:00:00 - - - - - - - - - -
10.08.2020 09:00:00 - - - - - - - - - -
10.08.2020 08:00:00 24,4 23,7 8 4 16 9 W 1014,7 10 0,0
10.08.2020 07:00:00 23,9 23,4 6 3 9 5 WSW 1014,5 - 0,0
10.08.2020 06:00:00 23,8 23,1 6 3 11 6 WSW 1014,3 - 0,0
10.08.2020 05:00:00 24,1 23,6 9 5 13 7 W 1014,2 5 0,2
10.08.2020 04:00:00 24,1 23,4 6 3 14 8 W 1014,2 - 0,0
10.08.2020 03:00:00 24,1 23,2 8 5 13 7 W 1014,2 - 0,0
10.08.2020 02:00:00 24,5 23,6 6 3 19 10 W 1014,2 - 0,0
10.08.2020 01:00:00 24,7 23,8 8 4 31 17 W 1014,4 - 0,0
10.08.2020 00:00:00 25,0 23,8 9 5 27 15 W 1014,3 - 0,0
09.08.2020 23:00:00 25,2 21,9 16 9 22 12 WSW 1014,4 14 0,0
09.08.2020 22:00:00 25,8 20,4 14 8 21 12 WSW 1014,5 - 0,0
09.08.2020 21:00:00 26,1 18,2 7 4 14 8 W 1014,0 - 0,0
09.08.2020 20:00:00 27,4 17,8 8 5 18 10 WNW 1013,5 14 0,0
09.08.2020 19:00:00 29,1 19,4 9 5 23 12 WNW 1013,4 - 0,0
09.08.2020 18:00:00 30,2 19,3 13 7 25 13 WNW 1013,7 - 0,0
09.08.2020 17:00:00 29,7 21,4 14 8 22 12 W 1014,5 14 0,0
09.08.2020 16:00:00 29,5 22,0 15 8 25 14 W 1014,8 - 0,0
09.08.2020 15:00:00 33,4 18,7 10 5 26 14 NE 1015,0 - 0,0
09.08.2020 14:00:00 32,9 16,7 16 9 29 16 E 1015,0 14 0,0
09.08.2020 13:00:00 32,1 17,2 19 10 29 16 E 1015,6 - 0,0
09.08.2020 12:00:00 32,3 18,1 13 7 28 15 NE 1015,8 - 0,0
09.08.2020 11:00:00 27,1 23,1 5 3 14 8 WSW 1016,1 18 0,0
09.08.2020 10:00:00 26,2 23,1 6 3 12 7 SW 1016,3 - 0,0
09.08.2020 09:00:00 25,4 22,7 6 3 16 8 WSW 1016,4 - 0,0
09.08.2020 08:00:00 24,3 22,9 7 4 16 8 W 1016,3 18 0,0
09.08.2020 07:00:00 23,6 22,6 9 5 14 7 W 1016,0 - 0,0
09.08.2020 06:00:00 23,6 22,8 8 4 13 7 W 1015,7 - 0,0
09.08.2020 05:00:00 24,0 23,1 6 4 19 10 W 1015,7 18 0,0
09.08.2020 04:00:00 24,1 23,1 7 4 22 12 W 1015,9 - 0,0
09.08.2020 03:00:00 23,9 22,5 9 5 22 12 W 1015,9 - 0,0
09.08.2020 02:00:00 24,0 22,6 11 6 26 14 W 1016,0 - 0,0
09.08.2020 01:00:00 24,1 22,7 10 5 27 15 W 1016,1 - 0,0
09.08.2020 00:00:00 24,2 22,6 12 7 29 15 W 1016,1 - 0,0
08.08.2020 23:00:00 24,3 22,4 16 8 33 18 W 1016,1 18 0,0
08.08.2020 22:00:00 24,5 22,6 13 7 32 18 W 1016,1 - 0,0
08.08.2020 21:00:00 24,7 22,0 11 6 32 17 W 1015,8 - 0,0
08.08.2020 20:00:00 25,6 21,7 14 7 34 18 WSW 1015,7 18 0,0
08.08.2020 19:00:00 26,3 21,1 13 7 27 15 WSW 1015,7 - 0,0
08.08.2020 18:00:00 27,2 21,5 10 6 26 14 WSW 1016,0 - 0,0
08.08.2020 17:00:00 27,2 22,4 16 8 28 15 W 1016,3 18 0,0
08.08.2020 16:00:00 28,2 22,9 13 7 25 13 W 1016,6 - 0,0
08.08.2020 15:00:00 28,2 22,2 13 7 23 12 W 1016,8 - 0,0
08.08.2020 14:00:00 28,2 22,0 9 5 17 9 W 1017,2 18 0,0
08.08.2020 13:00:00 27,8 22,7 8 5 18 10 W 1017,5 - 0,0
08.08.2020 12:00:00 26,9 22,5 9 5 20 11 WSW 1017,7 - 0,0
08.08.2020 11:00:00 26,4 22,7 9 5 23 13 WSW 1017,9 - 0,0
08.08.2020 10:00:00 25,6 22,7 10 5 26 14 W 1018,0 - 0,0
08.08.2020 09:00:00 25,3 21,2 10 6 21 11 WSW 1017,9 - 0,0
08.08.2020 08:00:00 24,5 20,6 11 6 20 11 WSW 1017,9 12 0,0
08.08.2020 07:00:00 24,0 20,7 9 5 23 13 W 1017,7 - 0,0
08.08.2020 06:00:00 23,8 21,9 9 5 23 12 W 1017,5 - 0,0
08.08.2020 05:00:00 24,0 22,3 8 4 19 11 W 1017,5 12 0,0
08.08.2020 04:00:00 24,3 22,0 8 5 19 10 WSW 1017,5 - 0,0
08.08.2020 03:00:00 24,1 19,8 9 5 14 8 WSW 1017,6 - 0,0
08.08.2020 02:00:00 24,0 19,7 8 4 21 11 W 1017,6 - 0,0
08.08.2020 01:00:00 24,5 21,2 11 6 21 11 W 1017,6 - 0,0
08.08.2020 00:00:00 25,1 18,8 16 9 22 12 W 1017,6 - 0,0
07.08.2020 23:00:00 25,2 16,3 11 6 19 10 W 1017,4 18 0,0
07.08.2020 22:00:00 24,9 16,1 11 6 18 10 WNW 1017,1 - 0,0
07.08.2020 21:00:00 24,6 19,0 11 6 21 12 WNW 1016,6 - 0,0
07.08.2020 20:00:00 25,7 20,9 14 8 21 12 W 1016,4 14 0,0
07.08.2020 19:00:00 27,3 21,1 10 5 17 9 W 1016,5 - 0,0
07.08.2020 18:00:00 28,2 21,2 12 7 20 11 W 1016,3 - 0,0
07.08.2020 17:00:00 29,7 15,8 11 6 29 16 NE 1016,6 14 0,0
07.08.2020 16:00:00 30,3 14,8 19 10 31 17 NNE 1016,7 - 0,0
07.08.2020 15:00:00 30,1 20,4 11 6 38 21 NNE 1016,9 - 0,0
07.08.2020 14:00:00 29,5 18,9 7 4 18 10 NW 1016,8 14 0,0
07.08.2020 13:00:00 29,0 20,2 10 5 21 11 NNW 1016,9 - 0,0
07.08.2020 12:00:00 26,5 21,0 6 3 17 9 WSW 1017,4 - 0,0
07.08.2020 11:00:00 25,4 21,1 6 3 16 9 W 1017,6 - 0,0
07.08.2020 10:00:00 26,6 21,6 6 3 16 8 WSW 1017,4 - 0,0
07.08.2020 09:00:00 25,5 21,2 8 4 14 7 WSW 1017,2 - 0,0
07.08.2020 08:00:00 24,4 21,1 5 3 12 6 WSW 1016,9 14 0,0
07.08.2020 07:00:00 22,5 20,4 4 2 10 5 SW 1016,6 - 0,0
07.08.2020 06:00:00 21,6 19,2 7 4 10 5 W 1016,2 - 0,0
07.08.2020 05:00:00 22,3 19,1 6 3 15 8 WSW 1016,0 14 0,0
07.08.2020 04:00:00 22,6 19,8 7 4 23 12 WSW 1016,3 - 0,0
07.08.2020 03:00:00 23,4 20,7 13 7 26 14 W 1016,2 - 0,0
07.08.2020 02:00:00 23,5 20,4 13 7 27 15 W 1016,3 14 0,0
07.08.2020 01:00:00 23,5 20,2 12 6 27 14 W 1016,5 - 0,0
07.08.2020 00:00:00 23,8 20,1 13 7 30 16 W 1016,4 - 0,0
06.08.2020 23:00:00 23,9 19,6 18 10 31 17 W 1016,3 25 0,0
06.08.2020 22:00:00 23,7 20,6 21 11 35 19 W 1016,1 - 0,0
06.08.2020 21:00:00 24,0 20,7 20 11 32 18 W 1015,6 - 0,0
06.08.2020 20:00:00 24,8 18,7 21 11 27 14 W 1015,3 25 0,0
06.08.2020 19:00:00 26,3 19,7 16 9 27 14 W 1015,2 - 0,0
06.08.2020 18:00:00 25,6 19,9 18 10 29 16 W 1015,2 - 0,0
06.08.2020 17:00:00 25,7 19,8 10 5 19 10 W 1015,2 - 0,0
06.08.2020 16:00:00 27,4 18,9 8 5 21 11 W 1015,3 - 0,0
06.08.2020 15:00:00 26,7 19,8 10 5 20 11 W 1015,6 - 0,0
06.08.2020 14:00:00 25,9 19,1 5 3 16 8 WSW 1015,7 25 0,0
06.08.2020 13:00:00 25,1 19,0 6 3 18 10 W 1015,9 - 0,0
06.08.2020 12:00:00 25,7 20,3 6 4 17 9 WSW 1015,6 - 0,0
06.08.2020 11:00:00 26,1 19,5 7 4 16 9 WSW 1015,4 20 0,0
06.08.2020 10:00:00 25,4 18,3 7 4 16 9 W 1015,1 - 0,0
06.08.2020 09:00:00 25,5 18,4 6 3 9 5 W 1014,8 - 0,0
06.08.2020 08:00:00 24,6 17,8 2 1 8 5 NW 1014,4 20 0,0
06.08.2020 07:00:00 20,5 15,9 8 4 10 5 NE 1014,5 - 0,0

tt = Température de l'air
td = dewpoint
ff = Vitesse du vent
fx = gusts
dd = Direction du vent
ppp = reduced air pressure
vv = visibility
rr = Quantités de précipitations

stations d'obs. à proximité